Weather History for Janesville, WI

Change the Weather History Date:

Monday, February 17, 2014

  Actual Average Record
Temperature  
Mean Temperature 24 °F -  
Max Temperature 28 °F 33 °F 55 °F (2011)
Min Temperature 21 °F 18 °F -4 °F (2006)
Degree Days  
Heating Degree Days 40    
Moisture  
Dew Point 19 °F    
Average Humidity 80    
Maximum Humidity 86    
Minimum Humidity 74    
Precipitation  
Precipitation 0.00 in - - ()
Sea Level Pressure  
Sea Level Pressure 29.94 in    
Wind  
Wind Speed 9 mph (SE)    
Max Wind Speed 23 mph    
Max Gust Speed 29 mph    
Visibility 7 miles    
Events Snow    
Averages and records for this station are not official NWS values.
T = Trace of Precipitation, MM = Missing Value Source: NWS Daily Summary

Daily Weather History Graph

Daily Weather History Graph

Search for Another Location

Airport:

Trip Planner

Search our weather history database for the weather conditions in past years. The results will help you decide how hot, cold, wet, or windy it might be!

Date:

Astronomy

Feb. 17, 2014 Rise Set
Actual Time 6:50 AM CST 5:30 PM CST
Civil Twilight 6:21 AM CST 5:59 PM CST
Nautical Twilight 5:48 AM CST 6:32 PM CST
Astronomical Twilight 5:15 AM CST 7:05 PM CST
Moon 8:30 PM CST (2/17) 7:46 AM CST (2/17)
Length of Visible Light 11h 38m
Length of Day
10h 40m
Waning Gibbous, 93% of the Moon is Illuminated
Feb 17
Waning Gibbous
Feb 22
Last Quarter
Mar 1
New
Mar 8
First Quarter
Mar 16
Full

Hourly Weather History & Observations

Time (CST) Temp. Windchill Dew Point Humidity Pressure Visibility Wind Dir Wind Speed Gust Speed Precip Events Conditions
12:15 AM 21.2 °F 11.7 °F 14.0 °F 74% 30.21 in 10.0 mi East 8.1 mph - N/A   Overcast
12:35 AM 21.2 °F 12.6 °F 14.0 °F 74% 30.21 in 10.0 mi ESE 6.9 mph - N/A   Overcast
12:55 AM 21.2 °F 12.6 °F 14.0 °F 74% 30.20 in 10.0 mi East 6.9 mph - N/A   Overcast
1:15 AM 21.2 °F 11.7 °F 15.8 °F 80% 30.19 in 10.0 mi ESE 8.1 mph - N/A   Overcast
1:35 AM 21.2 °F 11.7 °F 15.8 °F 80% 30.19 in 10.0 mi ESE 8.1 mph - N/A   Overcast
1:55 AM 21.2 °F 13.6 °F 15.8 °F 80% 30.18 in 10.0 mi ESE 5.8 mph - N/A   Overcast
2:15 AM 23.0 °F 13.9 °F 17.6 °F 80% 30.18 in 10.0 mi ESE 8.1 mph - N/A   Overcast
2:35 AM 23.0 °F 14.7 °F 17.6 °F 80% 30.17 in 10.0 mi SE 6.9 mph - N/A Snow Light Snow
2:55 AM 23.0 °F 17.0 °F 17.6 °F 80% 30.18 in 7.0 mi SSE 4.6 mph - N/A   Overcast
3:15 AM 23.0 °F 15.8 °F 17.6 °F 80% 30.17 in 10.0 mi SE 5.8 mph - N/A   Overcast
3:35 AM 23.0 °F 15.8 °F 19.4 °F 86% 30.16 in 10.0 mi SE 5.8 mph - N/A   Overcast
3:55 AM 23.0 °F 14.7 °F 19.4 °F 86% 30.15 in 10.0 mi ESE 6.9 mph - N/A   Overcast
4:15 AM 24.8 °F 15.3 °F 19.4 °F 80% 30.15 in 10.0 mi ESE 9.2 mph - N/A   Overcast
4:35 AM 23.0 °F 13.9 °F 19.4 °F 86% 30.14 in 10.0 mi ESE 8.1 mph - N/A   Overcast
6:45 AM 24.8 °F 10.7 °F 17.6 °F 74% 30.04 in 10.0 mi SE 19.6 mph 25.3 mph N/A   Scattered Clouds
7:45 AM 24.8 °F 9.6 °F 17.6 °F 74% 29.97 in 10.0 mi SE 23.0 mph 28.8 mph N/A   Overcast
8:05 AM 24.8 °F 9.6 °F 17.6 °F 74% 29.96 in 2.0 mi SE 23.0 mph 28.8 mph N/A Snow Snow
8:45 AM 24.8 °F 11.5 °F 19.4 °F 80% 29.96 in 0.8 mi SSE 17.3 mph 28.8 mph N/A Snow Snow
9:50 AM 24.8 °F 11.5 °F 19.4 °F 80% 29.90 in 1.0 mi SE 17.3 mph 28.8 mph N/A Snow Snow
10:45 AM 24.8 °F 11.5 °F 19.4 °F 80% 29.88 in 1.0 mi SE 17.3 mph - N/A Snow Snow
12:45 PM 24.8 °F 12.9 °F 21.2 °F 86% 29.78 in 1.0 mi SE 13.8 mph - N/A Snow Snow
1:45 PM 24.8 °F 15.3 °F 21.2 °F 86% 29.75 in 0.2 mi SE 9.2 mph - N/A Snow Snow
2:45 PM 24.8 °F 16.1 °F 21.2 °F 86% 29.72 in 0.8 mi SE 8.1 mph - N/A Snow Snow
3:45 PM 24.8 °F 19.1 °F 21.2 °F 86% 29.70 in 2.0 mi SE 4.6 mph - N/A Snow Light Snow
4:45 PM 24.8 °F 17.9 °F 21.2 °F 86% 29.68 in 2.0 mi ESE 5.8 mph - N/A Snow Light Snow
5:45 PM 24.8 °F 19.1 °F 21.2 °F 86% 29.69 in 2.0 mi Variable 4.6 mph - N/A Snow Light Snow
8:15 PM 24.8 °F 17.9 °F 21.2 °F 86% 29.72 in 7.0 mi West 5.8 mph - N/A   Overcast
8:35 PM 26.6 °F 18.2 °F 21.2 °F 80% 29.73 in 7.0 mi West 8.1 mph - N/A   Overcast
8:55 PM 26.6 °F 17.5 °F 21.2 °F 80% 29.73 in 7.0 mi West 9.2 mph - N/A   Mostly Cloudy
9:15 PM 26.6 °F 18.2 °F 21.2 °F 80% 29.74 in 7.0 mi West 8.1 mph - N/A   Overcast
9:35 PM 26.6 °F 16.2 °F 23.0 °F 86% 29.75 in 7.0 mi WNW 11.5 mph - N/A   Overcast
9:55 PM 28.4 °F 17.0 °F 23.0 °F 80% 29.76 in 7.0 mi WNW 15.0 mph - N/A   Overcast
10:15 PM 28.4 °F 16.6 °F 21.2 °F 74% 29.76 in 7.0 mi NW 16.1 mph 23.0 mph N/A   Overcast
10:35 PM 28.4 °F 16.6 °F 21.2 °F 74% 29.78 in 7.0 mi WNW 16.1 mph - N/A   Overcast
10:55 PM 28.4 °F 18.5 °F 21.2 °F 74% 29.78 in 7.0 mi WNW 11.5 mph - N/A   Overcast
11:15 PM 28.4 °F 18.5 °F 21.2 °F 74% 29.79 in 7.0 mi NW 11.5 mph - N/A   Overcast
11:35 PM 28.4 °F 19.1 °F 21.2 °F 74% 29.79 in 7.0 mi NW 10.4 mph - N/A   Overcast
11:55 PM 28.4 °F 19.7 °F 23.0 °F 80% 29.81 in 7.0 mi NW 9.2 mph - N/A   Overcast